Change the Weather History Date:

Wednesday, February 20, 2013

  Actual Average (KFFM) Record (KFFM)
Temperature  
Mean Temperature -8 °F -  
Max Temperature 8 °F 26 °F 48 °F (1981)
Min Temperature -23 °F 5 °F -31 °F (2008)
Degree Days  
Heating Degree Days 72    
Moisture  
Dew Point -12 °F    
Average Humidity 72    
Maximum Humidity 83    
Minimum Humidity 61    
Precipitation  
Precipitation 0.00 in - - ()
Sea Level Pressure  
Sea Level Pressure 30.38 in    
Wind  
Wind Speed 4 mph (ESE)    
Max Wind Speed 12 mph    
Max Gust Speed -    
Visibility 10 miles    
Events Snow    
Averages and records for this station are not official NWS values.
T = Trace of Precipitation, MM = Missing Value Source: NWS Daily Summary

Daily Weather History Graph

Daily Weather History Graph

Search for Another Location

Airport or City:

Trip Planner

Search our weather history database for the weather conditions in past years. The results will help you decide how hot, cold, wet, or windy it might be!

Date:

Astronomy

Feb. 20, 2013 Rise Set
Actual Time 7:17 AM CST 5:58 PM CST
Civil Twilight 6:47 AM CST 6:28 PM CST
Nautical Twilight 6:12 AM CST 7:03 PM CST
Astronomical Twilight 5:38 AM CST 7:37 PM CST
Moon 1:10 PM CST (2/20) 3:48 AM CST (2/20)
Length of Visible Light 11h 40m
Length of Day
10h 40m
Waxing Gibbous, 76% of the Moon is Illuminated
Feb 20
Waxing Gibbous
Feb 25
Full
Mar 4
Last Quarter
Mar 11
New
Mar 19
First Quarter

Hourly Weather History & Observations

Time (CST) Temp. Windchill Dew Point Humidity Pressure Visibility Wind Dir Wind Speed Gust Speed Precip Events Conditions
12:15 AM -16.6 °F -26.8 °F -22.0 °F 76% 30.40 in 10.0 mi North 3.5 mph - N/A   Clear
12:35 AM -16.6 °F -29.3 °F -22.0 °F 76% 30.41 in 10.0 mi NNW 4.6 mph - N/A   Clear
1:35 AM -18.4 °F -33.4 °F -23.8 °F 76% 30.41 in 10.0 mi NNW 5.8 mph - N/A   Clear
2:15 AM -18.4 °F -33.4 °F -25.6 °F 70% 30.43 in 10.0 mi West 5.8 mph - N/A   Clear
2:35 AM -22.0 °F -35.6 °F -25.6 °F 83% 30.42 in 10.0 mi NW 4.6 mph - N/A   Clear
2:55 AM -22.0 °F - -25.6 °F 83% 30.42 in 10.0 mi Calm Calm - N/A   Clear
3:15 AM -22.0 °F - -25.6 °F 83% 30.42 in 10.0 mi Calm Calm - N/A   Clear
3:35 AM -18.4 °F - -23.8 °F 76% 30.42 in 10.0 mi Calm Calm - N/A   Clear
3:55 AM -20.2 °F -30.9 °F -25.6 °F 76% 30.41 in 10.0 mi North 3.5 mph - N/A   Clear
4:15 AM -20.2 °F - -25.6 °F 76% 30.42 in 1.0 mi Calm Calm - N/A Snow Light Snow
4:35 AM -18.4 °F - -25.6 °F 70% 30.42 in 10.0 mi Calm Calm - N/A   Clear
4:55 AM -20.2 °F - -25.6 °F 76% 30.42 in 10.0 mi Calm Calm - N/A   Clear
5:15 AM -22.0 °F -33.0 °F -27.4 °F 76% 30.42 in 10.0 mi WSW 3.5 mph - N/A   Clear
5:35 AM -22.0 °F - -27.4 °F 76% 30.41 in 10.0 mi Calm Calm - N/A   Clear
6:35 AM -20.2 °F - -25.6 °F 76% 30.41 in 10.0 mi Calm Calm - N/A   Clear
6:55 AM -22.0 °F - -27.4 °F 76% 30.41 in 10.0 mi Calm Calm - N/A   Clear
7:15 AM -22.0 °F - -27.4 °F 76% 30.41 in 10.0 mi Calm Calm - N/A   Clear
7:55 AM -23.8 °F - -27.4 °F 83% 30.43 in 10.0 mi Calm Calm - N/A   Clear
8:15 AM -22.0 °F - -25.6 °F 83% 30.42 in 10.0 mi Calm Calm - N/A   Clear
8:35 AM -18.4 °F -28.9 °F -23.8 °F 76% 30.41 in 10.0 mi East 3.5 mph - N/A   Clear
8:55 AM -14.8 °F -32.2 °F -20.2 °F 77% 30.40 in 10.0 mi East 8.1 mph - N/A   Clear
9:15 AM -9.4 °F -26.8 °F -14.8 °F 77% 30.40 in 10.0 mi East 9.2 mph - N/A   Clear
9:35 AM -9.4 °F -18.6 °F -14.8 °F 77% 30.41 in 10.0 mi ESE 3.5 mph - N/A   Clear
9:55 AM -9.4 °F -20.9 °F -16.6 °F 71% 30.42 in 10.0 mi South 4.6 mph - N/A   Clear
10:15 AM -7.6 °F - -13.0 °F 77% 30.41 in 10.0 mi Calm Calm - N/A   Clear
10:35 AM -9.4 °F -18.6 °F -14.8 °F 77% 30.42 in 10.0 mi SSW 3.5 mph - N/A   Clear
11:35 AM -5.8 °F - -13.0 °F 71% 30.42 in 10.0 mi Calm Calm - N/A   Clear
11:55 AM -4.0 °F -14.6 °F -11.2 °F 71% 30.42 in 10.0 mi SW 4.6 mph - N/A   Clear
12:15 PM -4.0 °F - -9.4 °F 78% 30.42 in 10.0 mi Calm Calm - N/A   Clear
12:35 PM -4.0 °F -12.4 °F -9.4 °F 78% 30.41 in 10.0 mi SSE 3.5 mph - N/A   Clear
12:55 PM -0.4 °F -8.3 °F -7.6 °F 72% 30.41 in 10.0 mi SE 3.5 mph - N/A   Clear
1:15 PM 3.2 °F -6.2 °F -5.8 °F 66% 30.40 in 10.0 mi ESE 4.6 mph - N/A   Clear
1:35 PM 3.2 °F -9.1 °F -5.8 °F 66% 30.39 in 10.0 mi East 6.9 mph - N/A   Clear
2:15 PM 5.0 °F -4.1 °F -4.0 °F 66% 30.40 in 10.0 mi SSE 4.6 mph - N/A   Clear
2:55 PM 5.0 °F -6.9 °F -4.0 °F 66% 30.40 in 10.0 mi South 6.9 mph - N/A   Clear
3:15 PM 5.0 °F -6.9 °F -4.0 °F 66% 30.39 in 10.0 mi South 6.9 mph - N/A   Clear
3:35 PM 5.0 °F -5.6 °F -4.0 °F 66% 30.39 in 10.0 mi South 5.8 mph - N/A   Clear
3:55 PM 5.0 °F -4.1 °F -4.0 °F 66% 30.38 in 10.0 mi SE 4.6 mph - N/A   Clear
4:35 PM 5.0 °F -5.6 °F -2.2 °F 72% 30.36 in 10.0 mi East 5.8 mph - N/A   Clear
5:15 PM 6.8 °F - -0.4 °F 72% 30.36 in 10.0 mi Calm Calm - N/A   Clear
5:55 PM 5.0 °F -5.6 °F -0.4 °F 78% 30.34 in 10.0 mi East 5.8 mph - N/A   Clear
6:15 PM 6.8 °F -5.9 °F -0.4 °F 72% 30.34 in 10.0 mi East 8.1 mph - N/A   Clear
6:35 PM 8.6 °F -2.6 °F -0.4 °F 67% 30.33 in 10.0 mi East 6.9 mph - N/A   Clear
6:55 PM 8.6 °F -2.6 °F -0.4 °F 67% 30.34 in 10.0 mi ESE 6.9 mph - N/A   Clear
7:15 PM 6.8 °F -2.0 °F -0.4 °F 72% 30.34 in 10.0 mi SE 4.6 mph - N/A   Clear
7:35 PM 5.0 °F -6.9 °F -2.2 °F 72% 30.34 in 10.0 mi ESE 6.9 mph - N/A   Clear
7:55 PM 6.8 °F -4.8 °F -2.2 °F 67% 30.33 in 10.0 mi ESE 6.9 mph - N/A   Clear
8:15 PM 6.8 °F -3.5 °F -2.2 °F 67% 30.33 in 10.0 mi SE 5.8 mph - N/A   Clear
8:35 PM 6.8 °F -5.9 °F -2.2 °F 67% 30.32 in 10.0 mi ESE 8.1 mph - N/A   Clear
8:55 PM 6.8 °F -3.5 °F -2.2 °F 67% 30.32 in 10.0 mi ESE 5.8 mph - N/A   Clear
9:15 PM 6.8 °F -4.8 °F -2.2 °F 67% 30.32 in 10.0 mi ESE 6.9 mph - N/A   Clear
9:35 PM 6.8 °F -5.9 °F -2.2 °F 67% 30.31 in 10.0 mi ESE 8.1 mph - N/A   Clear
10:15 PM 8.6 °F -3.7 °F -2.2 °F 62% 30.32 in 10.0 mi ESE 8.1 mph - N/A   Clear
10:35 PM 8.6 °F -5.5 °F -2.2 °F 62% 30.32 in 10.0 mi ESE 10.4 mph - N/A   Clear
10:55 PM 8.6 °F -4.7 °F -2.2 °F 62% 30.33 in 10.0 mi ESE 9.2 mph - N/A   Clear
11:15 PM 8.6 °F -6.3 °F -2.2 °F 62% 30.33 in 10.0 mi ESE 11.5 mph - N/A   Clear
11:35 PM 6.8 °F -8.6 °F -4.0 °F 61% 30.33 in 10.0 mi ESE 11.5 mph - N/A   Clear
11:55 PM 6.8 °F -4.8 °F -4.0 °F 61% 30.33 in 10.0 mi ESE 6.9 mph - N/A   Clear